N8FIS Weather Reports


Display with metric or nautical units.
time (UTC)temp
F
wind
direction
speed
MPH
gust
MPH
rain 1hr
in
rain 24hr
in
rain mn
in
humidity
%
barometer
mb
20260502164046 44 333 1.0 5.0 0.00 0.02 0.00 69 1017.3
20260502163552 44 325 2.0 4.0 0.00 0.02 0.00 68 1017.3
20260502163037 44 246 2.0 4.0 0.00 0.02 0.00 74 1017.2
20260502162543 44 319 0.0 2.0 0.00 0.02 0.00 76 1017.3
20260502162053 44 319 0.0 2.0 0.00 0.02 0.00 75 1017.3
20260502161538 44 319 0.0 3.0 0.00 0.02 0.00 75 1017.4
20260502161045 44 319 0.0 3.0 0.00 0.02 0.00 75 1017.3
20260502160551 44 69 0.0 2.0 0.00 0.02 0.00 76 1017.4
20260502152048 42 9 0.0 3.0 0.00 0.00 0.00 80 1017.2
20260502151534 42 32 0.0 2.0 0.00 0.00 0.00 81 1017.2
20260502151040 42 55 1.0 2.0 0.00 0.00 0.00 81 1017.1
20260502150545 42 50 0.0 2.0 0.00 0.00 0.00 82 1017.1
20260502130548 40 5 2.0 4.0 0.00 0.00 0.00 84 1016.5
20260502123548 40 355 0.0 0.0 0.00 0.00 0.00 88 1016.3
20260502123035 40 334 0.0 0.0 0.00 0.00 0.00 88 1016.4
20260502122537 40 327 0.0 0.0 0.00 0.00 0.00 88 1016.4
20260502122109 40 326 0.0 0.0 0.00 0.00 0.00 89 1016.4
20260502121534 40 326 0.0 0.0 0.00 0.00 0.00 89 1016.4
20260502121039 40 326 0.0 0.0 0.00 0.00 0.00 90 1016.4
20260502120545 40 327 0.0 0.0 0.00 0.00 0.00 90 1016.4
20260502115538 39 327 0.0 0.0 0.00 0.00 0.00 90 1016.4
20260502115042 39 327 0.0 0.0 0.00 0.00 0.00 90 1016.3
20260502114544 39 327 0.0 0.0 0.00 0.00 0.00 91 1016.1
20260502114050 39 327 0.0 0.0 0.00 0.00 0.00 91 1016.2
20260502113535 39 326 0.0 0.0 0.00 0.00 0.00 91 1016.2
20260502113042 39 326 0.0 0.0 0.00 0.00 0.00 91 1016.1
20260502112548 38 341 0.0 0.0 0.00 0.00 0.00 91 1016.1
20260502112034 38 341 0.0 0.0 0.00 0.00 0.00 91 1016.1
20260502111541 38 341 0.0 0.0 0.00 0.00 0.00 91 1016.1
20260502111047 38 341 0.0 0.0 0.00 0.00 0.00 91 1016.0
20260502110552 38 341 0.0 0.0 0.00 0.00 0.00 91 1015.9
20260502105548 38 341 0.0 0.0 0.00 0.00 0.00 91 1015.8
20260502105034 38 341 0.0 0.0 0.00 0.00 0.00 91 1015.7
20260502104539 38 341 0.0 0.0 0.00 0.00 0.00 91 1015.7
20260502104046 38 341 0.0 0.0 0.00 0.00 0.00 91 1015.8
20260502103532 38 341 0.0 0.0 0.00 0.00 0.00 91 1015.7
20260502103059 38 341 0.0 0.0 0.00 0.00 0.00 91 1015.7
20260502102539 38 341 0.0 0.0 0.00 0.00 0.00 91 1015.6
20260502102046 38 341 0.0 0.0 0.00 0.00 0.00 91 1015.7
20260502101533 38 340 0.0 0.0 0.00 0.00 0.00 91 1015.6
20260502101040 38 340 0.0 0.0 0.00 0.00 0.00 91 1015.6
20260502100545 38 340 0.0 0.0 0.00 0.00 0.00 91 1015.7
20260502091042 38 315 0.0 0.0 0.00 0.00 0.00 90 1015.4
20260502090548 38 322 0.0 0.0 0.00 0.00 0.00 89 1015.4
20260502071532 39 307 0.0 0.0 0.00 0.00 0.00 89 1014.8
20260502071042 39 307 0.0 0.0 0.00 0.00 0.00 89 1014.8
20260502070547 39 307 0.0 0.0 0.00 0.00 0.00 89 1014.9
20260502070032 39 307 0.0 0.0 0.00 0.00 0.00 90 1014.8
20260502065538 39 307 0.0 1.0 0.00 0.00 0.00 90 1014.9
20260502065113 39 307 0.0 1.0 0.00 0.00 0.00 90 1014.9
20260502064537 40 307 0.0 1.0 0.00 0.00 0.00 90 1014.9
20260502064044 40 307 0.0 1.0 0.00 0.00 0.00 90 1014.9
20260502063551 40 307 0.0 1.0 0.00 0.00 0.00 91 1015.1
20260502063037 39 309 0.0 0.0 0.00 0.00 0.00 91 1015.2
20260502062546 40 309 0.0 1.0 0.00 0.00 0.00 90 1015.0
20260502062052 39 309 0.0 1.0 0.00 0.00 0.00 91 1015.1
20260502061538 39 309 0.0 0.0 0.00 0.00 0.00 90 1015.0
20260502061046 39 309 0.0 1.0 0.00 0.00 0.00 90 1015.0
20260502060534 39 309 0.0 1.0 0.00 0.00 0.00 90 1015.1
20260502060037 39 309 0.0 0.0 0.00 0.00 0.00 89 1015.2
20260502055608 39 309 0.0 0.0 0.00 0.00 0.00 89 1015.3
20260502055034 39 309 0.0 0.0 0.00 0.00 0.00 89 1015.2
20260502054541 39 309 0.0 0.0 0.00 0.00 0.00 88 1015.3
20260502054049 39 309 0.0 0.0 0.00 0.00 0.00 88 1015.2
20260502053534 40 309 0.0 0.0 0.00 0.00 0.00 88 1015.3
20260502053041 40 309 0.0 0.0 0.00 0.00 0.00 88 1015.3
20260502052547 40 309 0.0 0.0 0.00 0.00 0.00 87 1015.3
20260502052032 40 309 0.0 1.0 0.00 0.00 0.00 87 1015.3
20260502051539 41 309 0.0 1.0 0.00 0.00 0.00 87 1015.2
20260502051044 41 309 0.0 1.0 0.00 0.00 0.00 87 1015.3
20260502050551 41 309 0.0 5.0 0.00 0.00 0.00 87 1015.4
20260502050036 41 309 1.0 5.0 0.00 0.00 0.00 87 1015.5
20260502045532 42 321 0.0 0.0 0.00 0.00 0.00 87 1015.4
20260502045039 42 321 0.0 0.0 0.00 0.00 0.00 87 1015.4
20260502044543 42 321 0.0 0.0 0.00 0.00 0.00 87 1015.5
20260502044050 42 321 0.0 1.0 0.00 0.00 0.00 87 1015.5
20260502043536 42 321 0.0 1.0 0.00 0.00 0.00 87 1015.4
20260502043109 42 321 0.0 1.0 0.00 0.00 0.00 87 1015.5
20260502042534 42 321 0.0 1.0 0.00 0.00 0.00 87 1015.5
20260502042033 42 321 0.0 1.0 0.00 0.00 0.00 87 1015.5
20260502041542 42 275 0.0 1.0 0.00 0.00 0.00 87 1015.6
20260502041028 42 275 0.0 1.0 0.00 0.00 0.00 88 1015.6
20260502040537 42 249 0.0 2.0 0.00 0.00 0.00 88 1015.5
20260502040045 42 236 0.0 2.0 0.00 0.00 0.41 88 1015.5
20260502035610 42 238 0.0 2.0 0.00 0.00 0.41 88 1015.5
20260502035035 42 246 0.0 1.0 0.00 0.00 0.41 89 1015.4
20260502034602 42 246 0.0 1.0 0.00 0.00 0.41 89 1015.3
20260502034048 42 246 0.0 1.0 0.00 0.00 0.41 89 1015.3
20260502033535 41 247 1.0 1.0 0.00 0.00 0.41 90 1015.3
20260502033106 41 250 0.0 0.0 0.00 0.00 0.41 90 1015.2
20260502032533 41 355 0.0 0.0 0.00 0.00 0.41 90 1015.2
20260502032058 41 355 0.0 0.0 0.00 0.00 0.41 90 1015.2
20260502031543 41 355 0.0 0.0 0.00 0.00 0.41 90 1015.1
20260502031050 41 355 0.0 0.0 0.00 0.00 0.41 90 1015.0
20260502030536 41 355 0.0 0.0 0.00 0.00 0.41 89 1015.0
20260502030042 41 355 0.0 0.0 0.00 0.00 0.41 89 1015.0
20260502025548 41 355 0.0 0.0 0.00 0.00 0.41 89 1015.0
20260502025034 41 355 0.0 0.0 0.00 0.00 0.41 89 1015.0
20260502024604 41 355 0.0 0.0 0.00 0.00 0.41 89 1014.9
20260502024051 41 355 0.0 0.0 0.00 0.00 0.41 89 1014.8
20260502023535 41 355 0.0 0.0 0.00 0.00 0.41 89 1014.9
20260502023036 41 355 0.0 0.0 0.00 0.00 0.41 89 1014.9
20260502022542 41 355 0.0 0.0 0.00 0.00 0.41 88 1015.0
20260502022047 41 355 0.0 0.0 0.00 0.00 0.41 88 1015.0
20260502021534 41 355 0.0 0.0 0.00 0.00 0.41 88 1015.1
20260502021040 41 355 0.0 0.0 0.00 0.00 0.41 88 1015.0
20260502020549 41 355 0.0 0.0 0.00 0.00 0.41 87 1014.9
20260502020034 42 355 0.0 0.0 0.00 0.00 0.41 87 1014.9
20260502015540 42 355 0.0 0.0 0.00 0.00 0.41 86 1014.8
20260502015111 42 355 0.0 0.0 0.00 0.00 0.41 86 1014.8
20260502014536 43 355 0.0 0.0 0.00 0.00 0.41 85 1014.7
20260502014042 43 355 0.0 1.0 0.00 0.00 0.41 85 1014.7
20260502013550 43 355 0.0 4.0 0.00 0.00 0.41 84 1014.7
20260502013035 43 355 2.0 4.0 0.00 0.00 0.41 84 1014.7
20260502012540 44 351 1.0 4.0 0.00 0.00 0.41 84 1014.5
20260502012047 44 329 1.0 2.0 0.00 0.00 0.41 84 1014.4
20260502011554 44 331 1.0 2.0 0.00 0.00 0.41 84 1014.4
20260502011035 44 251 0.0 1.0 0.00 0.00 0.41 83 1014.3
20260502010539 44 251 0.0 0.0 0.00 0.00 0.41 83 1014.3
20260502010109 44 251 0.0 1.0 0.00 0.00 0.41 82 1014.1
20260502005553 44 251 0.0 1.0 0.00 0.00 0.41 82 1014.1
20260502005038 45 251 0.0 0.0 0.00 0.00 0.41 82 1014.0
20260502004544 45 251 0.0 0.0 0.00 0.00 0.41 81 1014.0
20260502004050 45 251 0.0 2.0 0.00 0.00 0.41 80 1014.0
20260502003601 45 251 0.0 2.0 0.00 0.00 0.41 80 1013.9
20260502003046 45 280 0.0 1.0 0.00 0.00 0.41 79 1013.9
20260502002532 45 232 0.0 1.0 0.00 0.00 0.41 79 1013.9
20260502002038 45 209 0.0 2.0 0.00 0.00 0.41 78 1013.9
20260502001542 45 223 0.0 2.0 0.00 0.00 0.41 78 1013.8
20260502001109 46 311 0.0 1.0 0.00 0.00 0.41 78 1013.8
20260502000534 46 196 0.0 2.0 0.00 0.00 0.41 78 1013.7
20260502000043 46 196 0.0 2.0 0.00 0.00 0.41 77 1013.7
20260501235548 46 286 0.0 3.0 0.00 0.00 0.41 78 1013.7
20260501235035 46 213 1.0 3.0 0.00 0.00 0.41 79 1013.6
20260501234541 46 194 0.0 2.0 0.00 0.00 0.41 79 1013.6
20260501234047 46 241 1.0 2.0 0.00 0.00 0.41 80 1013.6
20260501233555 46 180 0.0 2.0 0.00 0.00 0.41 80 1013.7
20260501233041 46 282 0.0 4.0 0.00 0.00 0.41 79 1013.7
20260501232548 46 221 1.0 4.0 0.00 0.00 0.41 79 1013.6
20260501232033 46 164 1.0 3.0 0.00 0.00 0.41 79 1013.6
20260501231539 46 162 1.0 2.0 0.00 0.00 0.41 80 1013.6
20260501231046 46 162 1.0 2.0 0.00 0.00 0.41 81 1013.6
20260501230532 46 175 0.0 3.0 0.00 0.00 0.41 80 1013.6
20260501230040 46 174 1.0 3.0 0.00 0.00 0.41 79 1013.7
20260501225545 46 167 1.0 2.0 0.00 0.00 0.41 80 1013.7
20260501225032 46 286 0.0 2.0 0.00 0.00 0.41 80 1013.7
20260501224555 46 173 0.0 2.0 0.00 0.00 0.41 79 1013.7
20260501224042 46 174 1.0 3.0 0.00 0.00 0.41 80 1013.7
20260501223547 46 187 1.0 3.0 0.00 0.00 0.41 79 1013.6
20260501223053 46 186 0.0 1.0 0.00 0.00 0.41 79 1013.7
20260501222538 46 187 0.0 2.0 0.00 0.00 0.41 79 1013.6
20260501222047 46 187 0.0 2.0 0.00 0.00 0.41 79 1013.7
20260501221535 47 173 0.0 1.0 0.00 0.00 0.41 79 1013.6
20260501221041 47 202 0.0 1.0 0.00 0.00 0.41 77 1013.5
20260501220550 47 202 0.0 2.0 0.00 0.00 0.41 78 1013.5
20260501215549 47 184 1.0 2.0 0.00 0.00 0.41 78 1013.5
20260501215035 47 191 0.0 2.0 0.00 0.00 0.41 79 1013.5
20260501214544 47 5 1.0 2.0 0.00 0.00 0.41 80 1013.5
20260501214033 47 5 0.0 0.0 0.00 0.00 0.41 79 1013.5
20260501213558 48 5 0.0 0.0 0.00 0.00 0.41 79 1013.6
20260501213043 48 5 0.0 0.0 0.00 0.00 0.41 78 1013.6
20260501212549 47 5 0.0 0.0 0.00 0.00 0.41 78 1013.5
20260501212036 47 5 0.0 0.0 0.00 0.00 0.41 80 1013.5
20260501211545 47 5 0.0 0.0 0.00 0.00 0.41 82 1013.5
20260501211052 46 5 0.0 0.0 0.00 0.00 0.41 84 1013.4
20260501210539 46 5 0.0 0.0 0.00 0.00 0.41 83 1013.3
20260501210047 45 5 0.0 0.0 0.00 0.00 0.41 83 1013.4
20260501205534 45 5 0.0 0.0 0.00 0.00 0.41 83 1013.3
20260501205040 45 5 0.0 0.0 0.00 0.00 0.41 83 1013.3
20260501204547 46 5 0.0 0.0 0.00 0.00 0.41 84 1013.2
20260501204034 46 5 0.0 0.0 0.00 0.00 0.41 84 1013.2
20260501203541 46 5 0.0 0.0 0.00 0.00 0.41 84 1013.3
20260501203111 46 5 0.0 0.0 0.00 0.00 0.41 85 1013.3
20260501202557 45 5 0.0 0.0 0.00 0.00 0.41 85 1013.3
20260501202037 46 5 0.0 0.0 0.00 0.00 0.41 85 1013.4
20260501201609 46 5 0.0 0.0 0.00 0.00 0.41 85 1013.4
20260501201034 46 5 0.0 0.0 0.00 0.00 0.41 87 1013.3
20260501200605 45 5 0.0 0.0 0.00 0.00 0.41 87 1013.2
20260501200050 45 5 0.0 0.0 0.00 0.00 0.41 87 1013.2
20260501195556 45 5 0.0 0.0 0.00 0.00 0.41 87 1013.1
20260501195105 45 5 0.0 0.0 0.00 0.00 0.41 88 1013.1
20260501194535 44 5 0.0 1.0 0.00 0.00 0.41 88 1013.1
20260501194041 44 5 0.0 4.0 0.00 0.00 0.41 87 1013.1
20260501193547 44 5 0.0 4.0 0.00 0.00 0.41 87 1013.3
20260501193033 44 330 0.0 1.0 0.00 0.00 0.41 88 1013.5
20260501192538 44 324 0.0 2.0 0.00 0.00 0.41 89 1013.5
20260501192042 43 349 0.0 3.0 0.00 0.00 0.41 89 1013.5
20260501191547 43 360 2.0 4.0 0.00 0.00 0.41 88 1013.4
20260501191100 43 360 2.0 4.0 0.00 0.00 0.41 88 1013.4
20260501190545 42 5 1.0 5.0 0.00 0.00 0.41 88 1013.4
20260501190031 42 350 3.0 5.0 0.00 0.00 0.41 88 1013.3
20260501185600 42 293 1.0 6.0 0.00 0.00 0.41 88 1013.3
20260501185046 43 5 2.0 6.0 0.00 0.00 0.41 87 1013.2
20260501184551 43 342 2.0 6.0 0.01 0.00 0.41 86 1013.1
20260501184037 44 347 3.0 13.0 0.01 0.00 0.41 86 1013.0
20260501183543 44 333 4.0 13.0 0.01 0.00 0.41 85 1012.9
20260501183050 45 355 3.0 6.0 0.01 0.00 0.41 85 1012.8
20260501182534 45 5 2.0 5.0 0.01 0.00 0.41 85 1012.8
20260501182040 45 5 1.0 3.0 0.01 0.00 0.41 87 1012.7
20260501181543 45 5 1.0 3.0 0.01 0.00 0.41 87 1012.6
20260501181051 45 5 2.0 4.0 0.01 0.00 0.41 88 1012.6
20260501180534 44 5 2.0 4.0 0.01 0.00 0.41 88 1012.5
20260501180038 44 348 1.0 5.0 0.01 0.00 0.41 89 1012.3
20260501175542 44 5 2.0 5.0 0.01 0.00 0.41 90 1012.4
20260501175049 43 5 2.0 4.0 0.01 0.00 0.41 89 1012.4
20260501174555 43 349 2.0 3.0 0.00 0.00 0.40 90 1012.3
20260501174039 43 346 1.0 4.0 0.00 0.00 0.40 90 1012.3
20260501173545 43 5 2.0 4.0 0.00 0.00 0.40 90 1012.3
20260501173050 43 355 3.0 5.0 0.00 0.00 0.40 90 1012.2
20260501172045 44 355 1.0 4.0 0.00 0.00 0.40 91 1012.1
20260501171530 44 24 0.0 4.0 0.00 0.00 0.40 92 1012.2